When you browse on this site, cookies collect data to enhance your experience and personalize the content and advertising you see.
Visit our Privacy Policy to learn more. By continuing to use the site, you agree to this use of cookies and data.
  • In Österreich
  • Länderverzeichnis
  • Für 7 Tage
  • Wassertemperatur
  • Wetterkarte
  • News
  • Widgets
  • user-avatar
    Anmelden

    Stündliche Wetter Jaú

    Heute, 28 Februar, Freitag

    Zeit Temperatur Niederschläge Wind Luftdruck Luftfeuchtigkeit
    00:00 +20°C° 0 mm 8 m/S 762 mmHg 64%
    01:00 +20°C° 0 mm 8 m/S 762 mmHg 64%
    02:00 +20°C° 0 mm 8 m/S 761 mmHg 64%
    03:00 +20°C° 0 mm 8 m/S 761 mmHg 64%
    04:00 +20°C° 0 mm 8 m/S 761 mmHg 66%
    05:00 +20°C° 0 mm 7 m/S 761 mmHg 67%
    06:00 +20°C° 0 mm 7 m/S 762 mmHg 68%
    07:00 +20°C° 0 mm 7 m/S 762 mmHg 67%
    08:00 +20°C° 0 mm 7 m/S 762 mmHg 66%
    09:00 +20°C° 0 mm 7 m/S 762 mmHg 66%
    10:00 +20°C° 0 mm 7 m/S 762 mmHg 65%
    11:00 +21°C° 0 mm 7 m/S 762 mmHg 63%
    12:00 +21°C° 0 mm 7 m/S 762 mmHg 62%
    13:00 +21°C° 0 mm 7 m/S 761 mmHg 62%
    14:00 +21°C° 0 mm 7 m/S 761 mmHg 63%
    15:00 +21°C° 0 mm 7 m/S 760 mmHg 63%
    16:00 +21°C° 0 mm 7 m/S 760 mmHg 64%
    17:00 +20°C° 0 mm 7 m/S 760 mmHg 64%
    18:00 +20°C° 0 mm 7 m/S 761 mmHg 65%
    19:00 +20°C° 0 mm 6 m/S 761 mmHg 65%
    20:00 +20°C° 0 mm 6 m/S 761 mmHg 64%
    21:00 +20°C° 0 mm 5 m/S 761 mmHg 64%
    22:00 +20°C° 0 mm 5 m/S 761 mmHg 64%
    23:00 +20°C° 0 mm 5 m/S 760 mmHg 64%

    Morgen, 29 Februar, Samstag

    Zeit Temperatur Niederschläge Wind Luftdruck Luftfeuchtigkeit
    00:00 +20°C° 0 mm 4 m/S 760 mmHg 64%
    01:00 +20°C° 0 mm 4 m/S 760 mmHg 63%
    02:00 +20°C° 0 mm 4 m/S 759 mmHg 63%
    03:00 +19°C° 0 mm 4 m/S 758 mmHg 63%
    04:00 +19°C° 0 mm 4 m/S 759 mmHg 63%
    05:00 +19°C° 0 mm 4 m/S 759 mmHg 63%
    06:00 +19°C° 0 mm 3 m/S 759 mmHg 64%
    07:00 +19°C° 0 mm 3 m/S 760 mmHg 63%
    08:00 +20°C° 0 mm 3 m/S 760 mmHg 62%
    09:00 +20°C° 0 mm 3 m/S 760 mmHg 61%
    10:00 +20°C° 0 mm 3 m/S 760 mmHg 59%
    11:00 +20°C° 0 mm 3 m/S 759 mmHg 58%
    12:00 +21°C° 0 mm 3 m/S 759 mmHg 56%
    13:00 +21°C° 0 mm 2 m/S 759 mmHg 55%
    14:00 +21°C° 0 mm 2 m/S 758 mmHg 53%
    15:00 +22°C° 0 mm 1 m/S 757 mmHg 51%
    16:00 +21°C° 0 mm 2 m/S 757 mmHg 55%
    17:00 +21°C° 0 mm 3 m/S 758 mmHg 59%
    18:00 +21°C° 0 mm 3 m/S 758 mmHg 63%
    19:00 +21°C° 0 mm 4 m/S 758 mmHg 64%
    20:00 +21°C° 0 mm 4 m/S 758 mmHg 65%
    21:00 +21°C° 0 mm 4 m/S 758 mmHg 65%
    22:00 +20°C° 0 mm 4 m/S 758 mmHg 66%
    23:00 +20°C° 0 mm 5 m/S 758 mmHg 67%

    übermorgen, 1 März, Sonntag

    Zeit Temperatur Niederschläge Wind Luftdruck Luftfeuchtigkeit
    00:00 +20°C° 0 mm 6 m/S 757 mmHg 67%
    01:00 +20°C° 0 mm 6 m/S 757 mmHg 68%
    02:00 +20°C° 0 mm 5 m/S 757 mmHg 69%
    03:00 +20°C° 0 mm 5 m/S 756 mmHg 70%
    04:00 +20°C° 0 mm 5 m/S 757 mmHg 70%
    05:00 +20°C° 0 mm 4 m/S 757 mmHg 69%
    06:00 +20°C° 0 mm 4 m/S 757 mmHg 69%
    07:00 +20°C° 0 mm 4 m/S 758 mmHg 67%
    08:00 +21°C° 0 mm 4 m/S 758 mmHg 66%
    09:00 +21°C° 0 mm 4 m/S 759 mmHg 64%
    10:00 +21°C° 0 mm 4 m/S 758 mmHg 61%
    11:00 +22°C° 0 mm 4 m/S 758 mmHg 58%
    12:00 +22°C° 0 mm 4 m/S 758 mmHg 55%
    13:00 +23°C° 0 mm 4 m/S 757 mmHg 53%
    14:00 +23°C° 0 mm 4 m/S 756 mmHg 50%
    15:00 +25°C° 0 mm 3 m/S 756 mmHg 48%
    16:00 +25°C° 0 mm 4 m/S 756 mmHg 50%
    17:00 +24°C° 0 mm 6 m/S 756 mmHg 51%
    18:00 +24°C° 0 mm 7 m/S 756 mmHg 53%
    19:00 +23°C° 0 mm 7 m/S 757 mmHg 55%
    20:00 +23°C° 0 mm 7 m/S 757 mmHg 57%
    21:00 +22°C° 0 mm 6 m/S 758 mmHg 59%
    22:00 +22°C° 0 mm 4 m/S 758 mmHg 62%
    23:00 +23°C° 0 mm 2 m/S 758 mmHg 65%

    2 März, Montag

    Zeit Temperatur Niederschläge Wind Luftdruck Luftfeuchtigkeit
    00:00 +20°C° 0 mm 0 m/S 758 mmHg 69%
    01:00 +23°C° 0 mm 1 m/S 758 mmHg 66%
    02:00 +23°C° 0 mm 1 m/S 758 mmHg 63%
    03:00 +23°C° 0 mm 2 m/S 758 mmHg 60%
    04:00 +22°C° 0 mm 3 m/S 758 mmHg 61%
    05:00 +22°C° 0 mm 4 m/S 759 mmHg 63%
    06:00 +22°C° 0 mm 5 m/S 760 mmHg 65%
    07:00 +21°C° 0 mm 6 m/S 760 mmHg 67%
    08:00 +21°C° 0 mm 7 m/S 761 mmHg 68%
    09:00 +21°C° 0 mm 8 m/S 762 mmHg 70%
    10:00 +21°C° 0 mm 9 m/S 761 mmHg 69%
    11:00 +21°C° 0 mm 9 m/S 761 mmHg 67%
    12:00 +21°C° 0 mm 9 m/S 761 mmHg 66%
    13:00 +21°C° 0 mm 9 m/S 760 mmHg 64%
    14:00 +21°C° 0 mm 10 m/S 760 mmHg 63%
    15:00 +21°C° 0 mm 10 m/S 760 mmHg 61%
    16:00 +21°C° 0 mm 9 m/S 760 mmHg 62%
    17:00 +19°C° 0 mm 9 m/S 760 mmHg 63%
    18:00 +19°C° 0 mm 9 m/S 761 mmHg 63%
    19:00 +19°C° 0 mm 9 m/S 761 mmHg 63%
    20:00 +20°C° 0 mm 8 m/S 762 mmHg 62%
    21:00 +20°C° 0 mm 8 m/S 763 mmHg 62%
    22:00 +20°C° 0 mm 8 m/S 762 mmHg 62%
    23:00 +20°C° 0 mm 7 m/S 762 mmHg 61%

    3 März, Dienstag

    Zeit Temperatur Niederschläge Wind Luftdruck Luftfeuchtigkeit
    00:00 +20°C° 0 mm 7 m/S 762 mmHg 61%
    01:00 +20°C° 0 mm 7 m/S 762 mmHg 61%
    02:00 +20°C° 0 mm 8 m/S 762 mmHg 61%
    03:00 +20°C° 0 mm 8 m/S 762 mmHg 61%
    04:00 +19°C° 0 mm 9 m/S 762 mmHg 60%
    05:00 +19°C° 0 mm 9 m/S 762 mmHg 60%
    06:00 +19°C° 0 mm 10 m/S 762 mmHg 60%
    07:00 +19°C° 0 mm 10 m/S 763 mmHg 59%
    08:00 +19°C° 0 mm 10 m/S 764 mmHg 59%
    09:00 +21°C° 0 mm 10 m/S 764 mmHg 58%
    10:00 +21°C° 0 mm 9 m/S 764 mmHg 58%
    11:00 +21°C° 0 mm 9 m/S 763 mmHg 58%
    12:00 +21°C° 0 mm 9 m/S 763 mmHg 57%
    13:00 +21°C° 0 mm 9 m/S 762 mmHg 58%
    14:00 +21°C° 0 mm 10 m/S 762 mmHg 59%
    15:00 +21°C° 0 mm 10 m/S 762 mmHg 59%
    16:00 +19°C° 0 mm 9 m/S 762 mmHg 59%
    17:00 +19°C° 0 mm 9 m/S 762 mmHg 59%
    18:00 +19°C° 0 mm 9 m/S 762 mmHg 60%
    19:00 +19°C° 0 mm 9 m/S 762 mmHg 59%
    20:00 +19°C° 0 mm 9 m/S 762 mmHg 59%
    21:00 +19°C° 0 mm 9 m/S 763 mmHg 59%
    22:00 +19°C° 0 mm 9 m/S 762 mmHg 59%
    23:00 +19°C° 0 mm 9 m/S 762 mmHg 59%

    4 März, Mittwoch

    Zeit Temperatur Niederschläge Wind Luftdruck Luftfeuchtigkeit
    00:00 +19°C° 0 mm 9 m/S 762 mmHg 59%
    01:00 +19°C° 0 mm 9 m/S 762 mmHg 58%
    02:00 +19°C° 0 mm 9 m/S 762 mmHg 58%
    03:00 +19°C° 0 mm 9 m/S 761 mmHg 58%
    04:00 +19°C° 0 mm 9 m/S 762 mmHg 59%
    05:00 +19°C° 0 mm 9 m/S 762 mmHg 59%
    06:00 +19°C° 0 mm 9 m/S 762 mmHg 60%
    07:00 +20°C° 0 mm 8 m/S 762 mmHg 59%
    08:00 +20°C° 0 mm 8 m/S 762 mmHg 58%
    09:00 +20°C° 0 mm 8 m/S 763 mmHg 57%
    10:00 +20°C° 0 mm 8 m/S 762 mmHg 56%
    11:00 +21°C° 0 mm 8 m/S 762 mmHg 55%
    12:00 +21°C° 0 mm 8 m/S 762 mmHg 54%
    13:00 +21°C° 0 mm 8 m/S 761 mmHg 54%
    14:00 +21°C° 0 mm 8 m/S 760 mmHg 54%
    15:00 +21°C° 0 mm 9 m/S 760 mmHg 54%
    16:00 +21°C° 0 mm 9 m/S 760 mmHg 55%
    17:00 +21°C° 0 mm 8 m/S 760 mmHg 55%
    18:00 +20°C° 0 mm 8 m/S 760 mmHg 55%
    19:00 +20°C° 0 mm 8 m/S 760 mmHg 57%
    20:00 +20°C° 0 mm 7 m/S 761 mmHg 58%
    21:00 +20°C° 0 mm 6 m/S 761 mmHg 59%
    22:00 +20°C° 0 mm 6 m/S 761 mmHg 59%
    23:00 +20°C° 0 mm 6 m/S 760 mmHg 58%
    Mehr zeigen